Tracking 19795 objects as of 17-Jul-2019
HD Live streaming from Space Station
objects crossing your sky now

GRIFEX

Track GRIFEX now!
10-day predictions
GRIFEX is classified as:


NORAD ID: 40379
Int'l Code: 2015-003D
Perigee: 433.0 km
Apogee: 620.0 km
Inclination: 99.1 °
Period: 95.0 minutes
Semi major axis: 6897 km
RCS: Unknown
Launch date: January 31, 2015
Source: United States (US)
Launch site: AIR FORCE WESTERN TEST RANGE (AFWTR)

Uplink (MHz):
Downlink (MHz): 437.480
Beacon (MHz):
Mode: 19200bps 9600bps GMSK
Call sign: KD8SPS
Status: Active

aabbcc
Your satellite tracking list
Your tracking list is empty




NASA's NSSDC Master Catalog

Two Line Element Set (TLE):
1 40379U 15003D   19197.98822300  .00001345  00000-0  61047-4 0  9996
2 40379  99.1139 177.9875 0135576  15.4974 345.0342 15.15531665245873
Source of the keplerian elements: Caltech